Regional Weather Roundup
Issued by NWS

Home | Current Version | Previous Version | Text Only | Print | Product List | Glossary Off
Versions: 1 2 3 4 5 6 7 8 9 10 11 12 13 14 15 16 17 18 19 20 21 22 23 24 25 26 27 28 29 30 31 32 33 34 35 36 37 38 39 40 41 42 43 44 45 46 47 48 49 50

000
ASUS45 KCYS 302010
RWRWY

WYOMING REGIONAL WEATHER ROUNDUP
NATIONAL WEATHER SERVICE CHEYENNE WY
100 PM MST FRI JAN 30 2015

NOTE:  "FAIR" INDICATES FEW OR NO CLOUDS BELOW 12,000 FEET
WITH NO SIGNIFICANT WEATHER AND/OR OBSTRUCTIONS TO VISIBILITY.

WYZ001-302100-
YELLOWSTONE NATIONAL PARK

CITY           SKY/WX    TMP DP  RH WIND       PRES   REMARKS
LK YELLOWSTONE   N/A     10   7  87 CALM      30.21F
W YELLOWSTONE  NOT AVBL

$$
WYZ002>013-054>058-071-098>099-302100-
NORTHERN WYOMING

CITY           SKY/WX    TMP DP  RH WIND       PRES   REMARKS
JACKSON        SUNNY     19  12  73 CALM      30.20F
CODY           FAIR      41  21  45 N3        30.18F
GREYBULL       FOG       27  26  96 CALM      30.23F VSB<1/4
WORLAND        FAIR      30  25  81 CALM      30.21F
SHERIDAN       FAIR      48  21  34 N5        30.19F
BUFFALO        FAIR      44  18  35 N12       30.19F
GILLETTE       FAIR      46  22  38 NW9       30.17F
HULETT           N/A    N/A N/A N/A MISG        N/A
NEWCASTLE      FAIR      46  27  46 NW9       30.14F

$$
WYZ014>020-022>026-101>103-302100-
CENTRAL WYOMING

CITY           SKY/WX    TMP DP  RH WIND       PRES   REMARKS
BIG PINEY      FAIR      34  19  54 E8        30.15F WCI  27
PINEDALE       FAIR      28  16  59 NW6       30.15F WCI  22
DUBOIS         FAIR      37   1  22 SE5       30.13F WCI  34
LANDER         FAIR      36  25  64 NE3       30.16F
RIVERTON       FAIR      37  29  72 VRB5      30.18F WCI  33
CASPER         FAIR      43  18  36 VRB5      30.17F
DOUGLAS        FAIR      46  19  34 NW14      30.17S

$$
WYZ021-027>030-104>119-302100-
SOUTHERN WYOMING

CITY           SKY/WX    TMP DP  RH WIND       PRES   REMARKS
EVANSTON       PTSUNNY   34  27  75 NE5       30.10F WCI  30
KEMMERER       FAIR      36  27  69 NE6       30.13F WCI  31
FORT BRIDGER   FAIR      34  28  77 NE6       30.16F WCI  29
ROCK SPRINGS   CLOUDY    35  29  78 E6        30.12F WCI  30
DIXON          FAIR      42  33  71 W3        30.13F
RAWLINS        CLOUDY    40  32  73 N3        30.14F
SARATOGA       MOCLDY    37  30  75 N3        30.14F
LARAMIE        FAIR      37  26  64 N8        30.13F WCI  31
CHEYENNE       FAIR      46  25  43 N15       30.11F
TORRINGTON     FAIR      42  24  49 NW6       30.13F
PINE BLUFFS    FAIR      46  27  46 N12       30.12F

$$



USA.gov is the U.S. government's official web portal to all federal, state and local government web resources and services.